Location: Brompton
(51.4000°N, 0.5333°E)
Time: 04:05:38
(UTC+00:00)

Cosmos 1733 Rocket - Pass Details

Date: 11 May 2021
Orbit: 603 x 628 km, 82.5° (Epoch: 13 June)

Event Time Altitude Azimuth Distance (km) Brightness Sun altitude
Rises 22:57:10 0° 345° (NNW) 2,875 8.2 -19.4°
Reaches altitude 10° 22:59:25 10° 341° (NNW) 1,964 6.9 -19.4°
Maximum altitude 23:03:38 52° 266° (W) 759 3.5 -19.6°
Enters shadow 23:04:55 37° 214° (SW) 938 3.6 -19.6°
